STARLINK-4333, 53088

Orbit data source: Space-Track

STARLINK-4333, 53088 is a payload satellite owned by SpaceX/Seattle (US) in SSO that was launched on Mon, 11 Jul 2022 UTC via an FALCON 9 launch vehicle from the Air Force Western Test Range (AFWTR). Payload-class satellites include a variety of spacecraft equipped with specific instruments for various scientific and technological missions. These include communications satellites like Starlink; space stations such as the ISS; scientific satellites like the Hubble; Earth observation satellites from companies like Planet Labs, Umbra, and HawkEye 360; GPS; miniature CubeSats for education and research; and military/defense satellites.

Loading next visibility...
Identifier
53088, 2022-077AX
Orbit
SSO
Country
Flag of USUS
Related business
Manufacturer
SpaceX/Seattle
Mission
Operational Commercial Communications
Bus & Motor
STARLINK, Unknown motor
Mass
297 kg wet, ~275 kg dry
Launch date (UTC)
2022-07-11 (3 years ago)
Launch vehicle
FALCON 9
Launch site
Air Force Western Test Range (AFWTR)
Object type
Payload
Rocket body
Debris
Shape & HBR
Box + 1 Pan, 10.1 m
Radar Cross Section
13.562 m², Large (>1 m²)

Expand to show TLE details & history
Last TLE update: 19 hours ago

TLE from 19 hours ago
0 STARLINK-4333
1 53088U 22077AX  25349.26461460  .00000088  00000-0  11415-4 0  9996
2 53088  97.6023 167.5553 0001665 185.2605 174.8603 15.01261026188257
Epoch: 2025-12-15T06:21Z
TLE epoch observation values (Epoch: 2025-12-15T06:21:02.701Z)
Latitude
0.00006°
Longitude
-11.87163°
Altitude
567.217 km
Speed
7.577 km/s
True Right ascension
11h 10m 13s
True Declination
0° 00' 00"
Sunlit
Object was in daylight at epoch
Visualization orbit readout
Latitude
Unknown
Longitude
Unknown
Altitude
Unknown
Speed
Unknown
Apparent Right ascension
Unknown
Apparent Declination
Unknown
Sunlit
N/A
Visualization observer readout
Local Sidereal Time
00:19:30
Azimuth
Unknown
Elevation
Unknown
Doppler factor
Unknown
Orbital elements
Apogee altitude
561.161 km
Perigee altitude
558.851 km
Semi-major axis
6,938.143 km
Eccentricity
0.00017
Inclination
97.6023°
RAAN
167.5553°
Arg. of periapsis
185.2605°
True anomaly
174.86201°
Mean anomaly
174.8603°
Eccentric anomaly
174.86115°
Mean motion
3.75559 °/min
Orbital period
95.86 mins
BSTAR
0.000011415
Loading maneuver chart data...
Computing Atmospheric mass density...
Loading historical data...
Loading historical data...
Loading historical data...
Loading historical data...
Loading historical data...
Loading historical data...
Loading historical data...

Documentation

Showing up to 5 results
|